Regional Weather Roundup
Issued by NWS

Home | Current Version | Previous Version | Text Only | Print | Product List | Glossary On
Versions: 1 2 3 4 5 6 7 8 9 10 11 12 13 14 15 16 17 18 19 20 21 22 23 24 25 26 27 28 29 30 31 32 33 34 35 36 37 38 39 40 41 42 43 44 45 46 47 48 49 50
000
ASUS43 KFSD 231610
RWRSD

WEATHER ROUNDUP FOR SOUTH DAKOTA
NATIONAL WEATHER SERVICE SIOUX FALLS SD
1100 AM CDT SAT MAY 23 2015

NOTE: "FAIR" INDICATES FEW OR NO CLOUDS BELOW 12,000 FEET WITH NO
SIGNIFICANT WEATHER AND/OR OBSTRUCTIONS TO VISIBILITY.


SDZ001>005-009-010-012>017-231700-
NORTHWEST AND NORTH CENTRAL SOUTH DAKOTA

CITY           SKY/WX    TMP DP  RH WIND       PRES   REMARKS
BUFFALO          N/A     53  44  71 SE17      30.01S
FAITH            N/A     52  44  74 SE14      30.10S
MOBRIDGE       CLOUDY    60  48  64 SE13      30.12S
$$

SDZ012>016-024>037-041>051-057-063-072>074-231700-
SOUTHWEST AND SOUTH CENTRAL SOUTH DAKOTA

CITY           SKY/WX    TMP DP  RH WIND       PRES   REMARKS
RAPID CTY ARPT CLOUDY    50  46  86 SE10      30.07S
PIERRE         CLOUDY    54  49  83 E14       30.11F
CUSTER         CLOUDY    46  43  89 E6        30.06F
ELLSWORTH AFB  CLOUDY    51  46  85 S12       30.07S
PHILIP         CLOUDY    53  49  86 E9        30.08F
PINE RIDGE     CLOUDY    53  47  79 E9        30.06R
SPEARFISH      PTSUNNY   52  45  76 E10       30.03F
WINNER         CLOUDY    55  51  86 SE14      30.12S
$$

SDZ004>011-016>023-039-040-231700-
NORTHEAST SOUTH DAKOTA

CITY           SKY/WX    TMP DP  RH WIND       PRES   REMARKS
ABERDEEN       CLOUDY    62  44  51 S13       30.18R
WATERTOWN      PTSUNNY   62  45  53 S16G22    30.19S
BROOKINGS      CLOUDY    61  43  51 SE13      30.20F
SISSETON         N/A     64  43  46 S10       30.20S
$$

SDZ017-020-022-023-036>040-048>070-231700-
SOUTHEAST SOUTH DAKOTA

CITY           SKY/WX    TMP DP  RH WIND       PRES   REMARKS
SIOUX FALLS    CLOUDY    61  52  72 SE12      30.18F
HURON          CLOUDY    55  51  86 SE10      30.17S
CHAMBERLAIN    DRIZZLE   53  52  97 SE10      30.13F
MITCHELL       CLOUDY    62  50  64 SE14      30.16F
YANKTON        CLOUDY    61  50  67 SE14      30.16S
$$

ABBREVIATIONS USED IN REMARKS
   TC - TEMPERATURE IN CELSIUS
  WCI - WIND CHILL INDEX
   HX - HEAT INDEX
  VSB - VISIBILITY




USA.gov is the U.S. government's official web portal to all federal, state and local government web resources and services.